St. Joseph, KS

8:33 AM CST on November 12, 2019 (GMT -0600)
Rosecrans Memorial

Weather History for KSTJ - October, 2019

Change the Weather History Date:

Tuesday, October 22, 2019

  Actual Average Record
Temperature  
Mean Temperature 50 °F 52 °F  
Max Temperature 59 °F 65 °F 87 °F (1927)
Min Temperature 41 °F 41 °F 23 °F (1982)
Degree Days  
Heating Degree Days 15 13  
Month to date heating degree days 221 207  
Since 1 July heating degree days 226 287  
Cooling Degree Days 0 0  
Month to date cooling degree days 17 18  
Year to date cooling degree days 1466 1217  
Moisture  
Dew Point 31 °F    
Average Humidity 57    
Maximum Humidity 82    
Minimum Humidity 31    
Precipitation  
Precipitation 0.00 in 0.09 in 2.83 in (1977)
Month to date precipitation 3.14 2.04  
Year to date precipitation 36.74 31.76  
Sea Level Pressure  
Sea Level Pressure 29.93 in    
Wind  
Wind Speed 12 mph (West)    
Max Wind Speed 26 mph    
Max Gust Speed 38 mph    
Visibility 10 miles    
Events      
T = Trace of Precipitation, MM = Missing Value Source: NWS Daily Summary

Daily Weather History Graph

Daily Weather History Graph

Search for Another Location

Airport or City:

Astronomy

Oct. 22, 2019 Rise Set
Actual Time 7:37 AM CDT 6:30 PM CDT
Civil Twilight 7:09 AM CDT 6:57 PM CDT
Nautical Twilight 6:38 AM CDT 7:29 PM CDT
Astronomical Twilight 6:06 AM CDT 8:00 PM CDT
Moon 12:48 AM CDT (10/22) 3:39 PM CDT (10/22)
Length of Visible Light 11h 48m
Length of Day
10h 53m
Last Quarter, 37% of the Moon is Illuminated
Oct 22
Last Quarter
Oct 27
New
Nov 4
First Quarter
Nov 12
Full
Nov 19
Last Quarter

Hourly Weather History & Observations

Time (CDT) Temp. Windchill Dew Point Humidity Pressure Visibility Wind Dir Wind Speed Gust Speed Precip Events Conditions
12:53 AM 46.9 °F - 37.0 °F 68% 29.83 in 10.0 mi West 16.1 mph 26.5 mph N/A   Mostly Cloudy
1:53 AM 46.0 °F 40.6 °F 36.0 °F 68% 29.83 in 10.0 mi West 11.5 mph - N/A   Clear
2:53 AM 45.0 °F 39.3 °F 34.0 °F 65% 29.85 in 10.0 mi West 11.5 mph 20.7 mph N/A   Clear
3:53 AM 45.0 °F 39.7 °F 32.0 °F 60% 29.85 in 10.0 mi West 10.4 mph 23.0 mph N/A   Clear
4:53 AM 44.1 °F 37.4 °F 30.9 °F 60% 29.87 in 10.0 mi West 13.8 mph 23.0 mph N/A   Clear
5:53 AM 43.0 °F 36.8 °F 30.9 °F 62% 29.89 in 10.0 mi West 11.5 mph - N/A   Clear
6:53 AM 43.0 °F 35.7 °F 30.0 °F 60% 29.91 in 10.0 mi West 15.0 mph 21.9 mph N/A   Clear
7:53 AM 43.0 °F 37.2 °F 30.0 °F 60% 29.93 in 10.0 mi West 10.4 mph - N/A   Clear
8:53 AM 45.0 °F 38.9 °F 30.0 °F 56% 29.96 in 10.0 mi WNW 12.7 mph 29.9 mph N/A   Clear
9:53 AM 48.0 °F - 30.0 °F 50% 29.97 in 10.0 mi WNW 18.4 mph 28.8 mph N/A   Clear
10:53 AM 50.0 °F - 28.0 °F 43% 29.98 in 10.0 mi WNW 24.2 mph 38.0 mph N/A   Clear
11:53 AM 53.1 °F - 27.0 °F 37% 29.99 in 10.0 mi WNW 20.7 mph 33.4 mph N/A   Clear
12:53 PM 55.0 °F - 27.0 °F 34% 29.99 in 10.0 mi West 19.6 mph 33.4 mph N/A   Clear
1:53 PM 55.9 °F - 26.1 °F 32% 29.97 in 10.0 mi WNW 17.3 mph 26.5 mph N/A   Clear
2:53 PM 57.0 °F - 27.0 °F 32% 29.97 in 10.0 mi NW 18.4 mph 33.4 mph N/A   Clear
3:53 PM 59.0 °F - 28.0 °F 31% 29.96 in 10.0 mi NW 18.4 mph 28.8 mph N/A   Clear
4:53 PM 59.0 °F - 28.0 °F 31% 29.97 in 10.0 mi WNW 15.0 mph 25.3 mph N/A   Clear
5:53 PM 55.9 °F - 30.0 °F 37% 29.96 in 10.0 mi West 8.1 mph - N/A   Clear
6:53 PM 51.1 °F - 32.0 °F 48% 29.96 in 10.0 mi WSW 5.8 mph - N/A   Clear
7:53 PM 46.9 °F - 37.0 °F 68% 29.96 in 10.0 mi SW 5.8 mph - N/A   Clear
8:53 PM 46.0 °F 43.1 °F 37.0 °F 71% 29.94 in 10.0 mi SW 5.8 mph - N/A   Clear
10:53 PM 41.0 °F 38.0 °F 36.0 °F 82% 29.95 in 10.0 mi South 4.6 mph - N/A   Clear
11:53 PM 43.0 °F 40.3 °F 36.0 °F 76% 29.93 in 10.0 mi SE 4.6 mph - N/A   Clear